Location: Fontevrault
(47.1823°N, 0.0493°E)
Time: 15:15:46
(UTC+00:00)

Cosmos 2360 Rocket - Pass Details

Date: 16 June 2021
Orbit: 835 x 843 km, 71.0° (Epoch: 31 July)

Event Time Altitude Azimuth Distance (km) Brightness Sun altitude
Rises 21:41:03 0° 204° (SSW) 3,382 5.0 -12.7°
Reaches altitude 10° 21:43:29 10° 204° (SSW) 2,450 4.3 -13.0°
Maximum altitude 21:49:07 87° 117° (ESE) 846 2.2 -13.5°
Drops below altitude 10° 21:54:47 10° 28° (NNE) 2,461 5.1 -13.9°
Sets 21:57:14 0° 28° (NNE) 3,398 5.8 -14.1°
